Overview Statistics Trail Chart Weather Telemetry Raw packets
 

This is the latest recevied weather packets stored in our database for station/object S56VIL-11. If no packets are shown the sender has not sent any weather packets the latest 10 day(s).

<< 29 30 31 32 33 34 35 >>
Time Temp. Humidity Pressure Rain* Wind** Luminosity Snow
1787929256 26.67° C 66% 1029.4 hPa - - - -
1787928353 27.22° C 66% 1029.5 hPa - - - -
1787927455 27.78° C 66% 1029.7 hPa - - - -
1787926552 28.89° C 65% 1029.9 hPa - - - -
1787925655 28.89° C 66% 1030.1 hPa - - - -
1787924752 28.33° C 65% 1030.2 hPa - - - -
1787923855 28.33° C 66% 1030.3 hPa - - - -
1787922951 28.33° C 66% 1030.4 hPa - - - -
1787922053 28.33° C 66% 1030.4 hPa - - - -
1787921151 28.33° C 65% 1030.5 hPa - - - -
1787920254 28.89° C 66% 1030.5 hPa - - - -
1787919350 28.89° C 66% 1030.7 hPa - - - -
1787918450 28.33° C 67% 1030.7 hPa - - - -
1787917551 28.89° C 66% 1030.8 hPa - - - -
1787916661 28.89° C 67% 1030.8 hPa - - - -
1787915750 28.89° C 67% 1030.6 hPa - - - -
1787914853 28.89° C 67% 1030.7 hPa - - - -
1787913949 29.44° C 68% 1030.7 hPa - - - -
1787913052 31.11° C 67% 1030.8 hPa - - - -
1787912149 32.22° C 66% 1030.9 hPa - - - -
1787911252 32.22° C 66% 1031 hPa - - - -
1787910348 31.11° C 67% 1031.2 hPa - - - -
1787908548 31.11° C 66% 1031.4 hPa - - - -
1787907651 31.11° C 66% 1031.5 hPa - - - -
1787906748 30° C 66% 1031.7 hPa - - - -

* Rain since midnight (hover to see other rain measurements)
** Current wind speed in m/s (hover to see current wind gust speed)